Upstream stations:
Downstream station:
SHEF ID: CHNK1 Cheney Lake
STATION TYPE: RESERVOIR
Flood Pool: Bottom = 1421.60, Top = 1429.00
PRECIP ELEVATION STORAGE INFLOW RELEASE WIND-DIRWIND-SPEED VOLTAGE
in ft ac-ft cfs cfs deg mph volt
Ccp-Rev Ccp-Rev Ccp-Rev Rev-Regi Rev-Regi Ccp-Rev Ccp-Rev Ccp-Rev
(US/Central)
08/29 00:00 0.00 1420.26 154601 148 0 ---- ---- 13.12
08/29 01:00 0.00 1420.27 154693 148 0 ---- ---- 13.11
08/29 02:00 0.00 1420.27 154693 148 0 ---- ---- 13.12
08/29 03:00 0.00 1420.27 154693 148 0 ---- ---- 13.12
08/29 04:00 0.00 1420.26 154601 0 0 ---- ---- 13.13
08/29 05:00 0.00 1420.26 154601 0 0 ---- ---- 13.13
08/29 06:00 0.00 1420.26 154601 0 0 ---- ---- 13.13
08/29 07:00 0.00 1420.26 154601 0 0 ---- ---- 13.13
08/29 08:00 0.00 1420.26 154601 0 0 ---- ---- 13.13
08/29 09:00 0.00 1420.27 154693 153 0 ---- ---- 13.14
08/29 10:00 0.00 1420.26 154601 153 0 ---- ---- 13.13
08/29 11:00 0.00 1420.28 154784 953 0 ---- ---- 13.13
08/29 12:00 0.00 1420.28 154784 1067 0 ---- ---- 13.13
08/29 13:00 0.00 1420.35 155425 1067 0 ---- ---- 13.13
08/29 14:00 0.17 1420.36 155516 1029 0 ---- ---- 13.13
08/29 15:00 0.13 1420.32 155150 1029 0 ---- ---- 13.13
08/29 16:00 0.01 1420.27 154693 229 0 ---- ---- 13.14
08/29 17:00 0.01 1420.34 155333 114 0 ---- ---- 13.14
08/29 18:00 0.00 1420.33 155242 114 0 ---- ---- 13.15
08/29 19:00 0.00 1420.32 155150 0 0 ---- ---- 13.15
08/29 20:00 0.00 1420.32 155150 0 0 ---- ---- 13.14
08/29 21:00 0.00 1420.32 155150 0 0 ---- ---- 13.16
08/29 22:00 0.00 1420.32 155150 0 0 ---- ---- 13.16
08/29 23:00 0.00 1420.32 155150 0 0 ---- ---- 13.16